Overview Statistics Trail Chart Weather Telemetry Raw packets
 

This is the latest recevied weather packets stored in our database for station/object LU3MCV-13. If no packets are shown the sender has not sent any weather packets the latest 10 day(s).

<< 34 35 36 37 38 39 >>
Time Temp. Humidity Pressure Rain* Wind** Luminosity Snow
1777228852 17.78° C 10% 938.6 hPa - - - -
1777227953 17.78° C 10% 938.7 hPa - - - -
1777227052 17.78° C 10% 938.7 hPa - - - -
1777226152 17.78° C 15% 938.8 hPa - - - -
1777225252 17.78° C 15% 938.8 hPa - - - -
1777224353 17.78° C 15% 938.9 hPa - - - -
1777223452 17.22° C 15% 939 hPa - - - -
1777222552 17.22° C 16% 939.2 hPa - - - -
1777221652 16.11° C 16% 939.4 hPa - - - -
1777220753 16.11° C 17% 939.6 hPa - - - -
1777219852 16.11° C 18% 939.6 hPa - - - -
1777218952 15° C 18% 939.8 hPa - - - -
1777218052 15° C 19% 939.8 hPa - - - -
1777217153 13.89° C 21% 939.9 hPa - - - -
1777216252 13.89° C 21% 939.9 hPa - - - -
1777215352 13.89° C 21% 939.9 hPa - - - -
1777214452 12.78° C 21% 939.9 hPa - - - -
1777213552 12.78° C 21% 939.8 hPa - - - -
1777212652 12.78° C 21% 939.5 hPa - - - -
1777211752 13.89° C 20% 939.4 hPa - - - -
1777210852 13.89° C 20% 938.9 hPa - - - -
1777209952 13.89° C 21% 938.5 hPa - - - -
1777209052 13.89° C 21% 938.2 hPa - - - -
1777208152 12.78° C 21% 937.8 hPa - - - -
1777207252 12.78° C 24% 937.6 hPa - - - -

* Rain since midnight (hover to see other rain measurements)
** Current wind speed in m/s (hover to see current wind gust speed)